Flag for Brazil Weather past 2 weeks in Santarém, Para, Brazil

Now
90 °F

Passing clouds.


Feels Like: 98 °F
Forecast: 75 / 92 °F
Wind: 10 mph from East

Location: Santarem-Aeroporto

Current Time: Sep 20, 2014 at 5:29:41 PM

Latest Report: Sep 20, 2014 at 5:00 PM


Visibility: N/A

Pressure: 29.83 "Hg

Humidity: 59%

Dew point: 73 °F

Location of SantarémLocation

Historic Weather in Santarém — Graph

°F

Santarém temperature yesterday

Maximum temperature yesterday: 90 °F (at 2:00 PM)
Minimum temperature yesterday: 75 °F (at 12:00 AM)
Average temperature yesterday: 82 °F

Past Weeks' High & Low Weather Summary

 TemperatureHumidityPressure
High91 °F (Sep 8, 3:00 PM)100% (Sep 6, 1:00 AM)29.98 "Hg (Sep 6, 1:00 AM)
Low73 °F (Sep 6, 1:00 AM)52% (Sep 9, 4:00 PM)29.71 "Hg (Sep 11, 5:00 PM)
Average83 °F78%29.86 "Hg
* Reported Sep 5 4:00 PM — Sep 20 4:00 PM, Santarém, Weather by CustomWeather, © 2014

Note: Actual official high and low records may vary slightly from our data, if they occured in-between our weather recording intervals... More about our weather records

Advertising

Santarém weather history for previous 24 hours

 ConditionsComfort  
Time TempWeatherWind HumidityBarometerVisibility
4:00 PM
Sep 20
90 °FPassing clouds.12 mph59%29.83 "HgN/A
3:00 PM90 °FPassing clouds.15 mph59%29.86 "HgN/A
10:00 AM86 °FPassing clouds.18 mph70%29.95 "HgN/A
9:00 AM84 °FPassing clouds.15 mph74%29.95 "HgN/A
8:00 AM82 °FSunny.10 mph79%29.92 "Hg10 mi
7:00 AM81 °FSunny.13 mph79%29.89 "Hg10 mi
6:00 AM81 °FClear.14 mph79%29.86 "Hg10 mi
5:00 AM81 °FPassing clouds.12 mph79%29.86 "HgN/A
4:00 AM73 °FPassing clouds.No wind100%29.86 "HgN/A
3:00 AM73 °FClear.No wind100%29.83 "Hg10 mi
2:00 AM75 °FClear.No wind94%29.83 "Hg10 mi
1:00 AM75 °FPassing clouds.No wind94%29.86 "HgN/A
12:00 AM77 °FPassing clouds.3 mph94%29.89 "HgN/A
11:00 PM
Sep 19
77 °FPassing clouds.5 mph94%29.89 "HgN/A
10:00 PM79 °FPassing clouds.6 mph89%29.89 "HgN/A
9:00 PM77 °FPassing clouds.6 mph94%29.86 "HgN/A
8:00 PM79 °FPassing clouds.6 mph89%29.83 "HgN/A
7:00 PM82 °FPassing clouds.6 mph79%29.80 "HgN/A
6:00 PM88 °FPassing clouds.7 mph62%29.77 "HgN/A
5:00 PM90 °FPassing clouds.13 mph63%29.80 "HgN/A
Weather by CustomWeather, © 2014

See weather overviewHow to use our weather pages